Location: ??
(38.4941°N, 106.2580°E)
Time: 07:12:05
(UTC+00:00)

Daily predictions for brighter satellites

Satellite Brightness Start Highest point End
(mag) Time Altitude Azimuth Time Altitude Azimuth Time Altitude Azimuth
ATLAS 5 CENTAUR R/B 3.6 12:18:15 10° NNW 12:23:12 28° NE 12:28:44 10° ESE
DMSP B5D2-2 4.4 12:19:37 10° NNE 12:24:35 43° E 12:29:33 10° S
Cosmos 1833 Rocket 3.8 12:22:51 10° SSE 12:27:08 23° E 12:31:26 10° NE
Cosmos 1933 3.9 12:29:50 10° NNW 12:33:54 64° W 12:37:57 10° S
Cosmos 1782 3.0 12:33:04 10° N 12:37:01 52° E 12:40:56 10° SSE
SPOT 3 Rocket 4.4 12:32:22 10° SE 12:37:01 34° ENE 12:41:41 10° N
BREEZE-M (TANK) 4.5 12:34:48 10° W 12:38:16 49° NNW 12:50:06 10° ENE
Cosmos 2251 Rocket 3.5 12:33:42 10° SSW 12:38:55 82° ESE 12:44:13 10° NNE
SL-08 RB Rocket 3.7 12:34:21 10° SSE 12:38:56 82° ENE 12:43:36 10° N
USA 186 1.0 12:37:23 10° S 12:39:44 75° W 12:42:00 10° NNW
Cosmos 405 3.5 12:37:13 10° NNW 12:40:38 61° W 12:44:02 10° S
USA 267 3.2 12:35:33 10° NE 12:42:05 68° SE 12:48:34 10° SW
SL-4 R/B 2.3 12:41:29 10° SSW 12:45:23 41° SE 12:49:01 10° ENE
FREGAT/IRIS 2.2 12:43:15 10° S 12:45:52 84° WSW 12:48:31 10° NNW
BREEZE-M DEB (TANK) 2.7 12:43:18 10° NW 12:49:24 52° NNE 12:51:38 15° E
Cosmos 2228 Rocket 3.4 12:45:30 10° N 12:49:46 47° E 12:54:00 10° SSE
Meteor 1-26 Rocket 4.5 12:45:06 10° NNW 12:50:37 71° W 12:56:00 10° S
Cosmos 1821 Rocket 4.5 12:45:28 10° SSE 12:51:02 38° E 12:56:40 10° NNE
Cosmos 1515 Rocket 3.8 12:49:25 10° N 12:53:52 76° W 12:58:18 10° S
Cosmos 2366 rocket 4.2 12:48:27 10° S 12:54:43 78° W 13:00:56 10° N
Cosmos 614 Rocket 4.1 12:55:03 10° S 12:59:59 52° ESE 13:05:02 10° NNE
Resurs 01 Rocket 2.3 12:57:14 16° SE 13:00:19 36° ENE 13:04:22 10° N
COSMOS 2406 3.2 12:57:35 10° SSW 13:03:18 72° ESE 13:09:01 10° NNE
Cosmos 1812 3.6 13:00:51 10° NNE 13:04:20 32° ENE 13:06:10 21° SE
IRIDIUM 103 4.4 13:00:35 10° SSE 13:05:40 59° E 13:10:48 10° N
Cosmos 389 Rocket 3.1 13:04:08 10° N 13:07:22 36° ENE 13:08:52 24° SE
USA 234 4.5 13:09:33 10° E 13:15:06 31° NNE 13:20:41 10° NNW
Cosmos 1441 Rocket 3.1 13:11:59 10° S 13:15:46 65° E 13:19:31 10° NNE
Cosmos 2082 Rocket 2.7 13:14:11 10° S 13:19:23 38° ESE 13:24:35 10° NE
Meteor 2-6 Rocket 4.2 13:15:14 10° N 13:20:46 88° E 13:25:57 13° S
GP-B 4.3 13:19:18 10° NNE 13:22:53 23° E 13:23:25 23° E
FALCON 9 DEB 3.1 13:19:42 10° SW 13:23:08 60° SE 13:26:36 10° NE
IRIDIUM 106 4.3 13:18:44 10° S 13:23:57 88° E 13:29:12 10° N
USA 238 DEB 4.3 13:19:25 10° S 13:25:03 31° ESE 13:30:50 10° NE
USA 238 4.3 13:19:34 10° S 13:25:10 31° ESE 13:30:55 10° NE
CZ-2C R/B 4.0 13:21:01 10° N 13:25:37 69° WNW 13:30:06 10° SSW
Cosmos 1818 4.2 13:22:02 10° NNW 13:27:13 43° NE 13:29:50 26° ESE
Spot 2 Rocket 4.1 13:30:37 27° ESE 13:32:36 39° ENE 13:37:19 10° N
Sich 1 3.0 13:30:05 12° S 13:34:14 87° E 13:38:42 10° N
Cosmos 1190 Rocket 3.9 13:33:23 10° S 13:38:35 69° ESE 13:43:51 10° NNE
Cosmos 1862 4.3 13:34:44 10° SSW 13:38:38 46° W 13:42:33 10° N
CZ-2C R/B 4.3 13:35:44 10° N 13:40:20 34° WNW 13:44:58 10° SW
Cosmos 407 Rocket 3.5 13:36:28 10° SSW 13:41:48 89° WNW 13:47:08 10° NNE
MetOp-B 4.1 13:40:17 30° SSE 13:42:53 67° ENE 13:48:13 10° N
Meteor 1-27 Rocket 3.8 13:38:11 10° N 13:44:06 70° E 13:47:08 30° SSE
Meteor 1-10 Rocket 4.5 13:38:39 10° NNW 13:44:18 71° W 13:48:43 18° S
Terra 3.6 13:45:35 17° ENE 13:45:59 17° ENE 13:48:57 10° NNE
CENTAUR R/B 3.6 13:56:27 24° E 13:56:27 24° E 14:00:03 10° NE
Cosmos 1666 Rocket 3.5 13:53:05 31° S 13:55:08 84° W 13:59:29 10° N
SL-8 R/B 3.6 13:50:53 10° WNW 13:55:45 87° NNE 13:56:59 51° ESE
Cosmos 972 4.3 13:50:46 10° NNW 13:55:53 83° WSW 13:57:42 40° S
Shenzhou-11 Module 3.9 13:55:16 10° WNW 13:56:33 23° NW 13:56:33 23° NW
SPOT 1/Viking Rocket 3.7 13:57:20 43° ESE 13:58:40 56° ENE 14:03:47 10° N
Cosmos 1980 Rocket 2.9 13:53:22 10° N 13:58:41 39° ENE 14:00:01 34° E
SPOT 5 3.8 13:58:58 27° ENE 13:58:58 27° ENE 14:02:30 10° NNE
Intercosmos 25 4.0 13:58:02 10° NNW 14:01:54 45° W 14:02:47 36° SW
Meteor 1-4 Rocket 2.9 14:02:51 10° N 14:05:40 52° NNE 14:05:40 52° NNE
Cosmos 1184 Rocket 4.1 14:09:25 34° NNE 14:09:25 34° NNE 14:11:26 10° NNE
ATLAS 5 CENTAUR R/B 2.8 14:02:16 10° NW 14:08:10 59° WSW 14:11:06 33° S
Cosmos 1140 Rocket 3.8 14:03:05 10° SSW 14:08:17 66° WNW 14:13:31 10° NNE
CZ-3A R/B 4.2 13:48:29 10° W 14:10:10 35° SSW 14:13:48 27° S
Cosmos 1833 Rocket 3.7 14:05:21 10° SW 14:10:41 45° WNW 14:16:05 10° N
USA 32 3.9 14:11:03 54° SSE 14:12:10 73° E 14:17:23 10° N
Cosmos 1697 Rocket 2.6 14:08:59 10° NNW 14:14:37 81° WSW 14:16:06 51° S
NOSS 3-2 (A) 3.1 14:15:59 22° SSW 14:19:45 78° ESE 14:25:59 10° NE
Cosmos 1867 3.7 14:16:00 10° SW 14:21:24 74° WNW 14:26:53 10° NNE
Cosmos 1934 Rocket 4.4 14:18:32 19° SSW 14:23:15 64° W 14:29:36 10° N
SL-4 R/B 3.7 14:21:32 10° W 14:25:02 29° NNW 14:28:19 10° NNE
NOSS 3-2 (C) 3.7 14:26:31 45° E 14:26:31 45° E 14:31:27 10° NE
Cosmos 405 Rocket 4.4 14:28:55 26° NNE 14:28:55 26° NNE 14:30:39 10° NNE
Cosmos 1633 Rocket 4.2 14:26:57 28° SW 14:28:43 42° W 14:32:56 10° N
Meteor 1-25 Rocket 4.1 14:28:51 58° S 14:30:01 90° E 14:35:38 10° N
Genesis I 4.5 14:28:29 10° NNW 14:31:12 35° NNE 14:31:12 35° NNE
Landsat 7 4.4 14:33:27 45° SW 14:34:12 49° W 14:38:50 10° NNW
Cosmos 676 Rocket 4.5 14:33:19 28° SW 14:36:02 60° WNW 14:41:20 10° N
Resurs 01 Rocket 3.9 14:34:49 14° SW 14:36:53 19° W 14:40:01 10° NW
Cosmos 2360 4.3 14:35:03 10° NNW 14:40:44 65° WSW 14:41:28 59° SSW
Okean 1-7 4.5 14:38:33 10° N 14:41:04 28° NNE 14:41:04 28° NNE
Cosmos 192 4.4 14:42:33 10° NNW 14:47:00 73° NNW 14:47:00 73° NNW
Cosmos 1470 Rocket 4.5 14:51:03 43° W 14:51:10 43° W 14:55:23 10° N
ERS-1 Rocket 3.2 14:56:08 61° W 14:56:08 61° W 15:00:58 10° NNW
SL-16 R/B 3.2 14:51:58 10° N 14:56:53 34° NE 14:56:53 34° NE
USA 234 3.1 14:56:43 70° SE 14:57:35 90° NE 15:04:09 10° NW
Cosmos 2082 Rocket 4.0 14:58:35 10° WSW 15:03:30 29° WNW 15:08:26 10° N
Cosmos 1741 Rocket 4.5 15:07:10 55° NNE 15:07:10 55° NNE 15:11:16 10° NNE
Cosmos 468 Rocket 4.5 15:00:50 10° NNW 15:05:14 56° NNE 15:05:14 56° NNE
Cosmos 2100 Rocket 4.0 15:06:45 66° ENE 15:06:45 66° ENE 15:12:19 10° NNE
Lacrosse 5 3.4 15:04:24 10° NNW 15:08:46 28° NE 15:08:53 28° NE
Cosmos 921 Rocket 4.4 15:05:05 10° NNW 15:07:41 35° NW 15:07:41 35° NW
ATLAS 3B R/B 4.0 15:12:23 24° ENE 15:12:23 24° ENE 15:15:16 10° NE
Cosmos 2278 4.4 15:05:39 10° NW 15:11:00 45° WSW 15:11:00 45° WSW
USA 238 DEB 4.4 15:09:18 10° SW 15:15:40 49° NW 15:22:18 10° NNE
USA 238 4.4 15:09:24 10° SW 15:15:46 49° NW 15:22:23 10° NNE
Cosmos 2322 Rocket 3.1 15:14:21 10° N 15:19:01 41° NE 15:19:01 41° NE
Cosmos 2173 Rocket 4.0 15:22:49 75° NNE 15:22:49 75° NNE 15:28:24 10° N
Terra 2.9 15:24:28 40° WNW 15:24:28 40° WNW 15:27:55 10° NNW
MOS 1-B Rocket 4.4 15:20:31 10° NNE 15:24:41 50° NE 15:24:41 50° NE
Cosmos 2360 Rocket 3.6 15:29:06 10° N 15:33:21 29° NE 15:33:21 29° NE
Cosmos 2016 Rocket 4.3 15:41:24 64° NNE 15:41:24 64° NNE 15:46:44 10° N
Cosmos 2061 Rocket 4.3 15:41:36 61° NNE 15:41:36 61° NNE 15:46:39 10° N
Cosmos 1980 Rocket 3.7 15:37:46 10° NW 15:41:47 26° W 15:41:47 26° W
Cosmos 1459 Rocket 4.3 15:44:36 62° WNW 15:44:36 62° WNW 15:50:33 10° N
CENTAUR R/B 3.2 15:43:31 41° W 15:44:57 49° NW 15:51:36 10° NNE
Cosmos 2333 Rocket 4.2 15:49:22 10° N 15:53:22 19° NE 15:53:26 19° NE
Cosmos 1802 Rocket 4.4 15:59:27 58° WNW 15:59:27 58° WNW 16:05:13 10° N
Lacrosse 4 Rocket 4.5 16:20:15 11° NNE 16:20:15 11° NNE 16:20:21 10° NNE
SL-16 R/B 4.0 16:36:12 10° NW 16:38:44 23° WNW 16:38:44 23° WNW
Lacrosse 5 4.3 16:47:01 10° NW 16:48:02 16° NW 16:48:02 16° NW
Cosmos 2219 Rocket 3.5 16:47:45 10° NNW 16:51:35 37° NNE 16:51:35 37° NNE
ATLAS 3B R/B 3.5 16:59:35 40° NW 16:59:51 40° NW 17:06:04 10° NNE
Cosmos 2322 Rocket 4.3 16:58:59 10° NW 17:00:49 18° WNW 17:00:49 18° WNW
Cosmos 2360 Rocket 4.1 17:12:57 10° NW 17:15:06 21° NW 17:15:06 21° NW
COSMOS 2428 3.9 17:13:01 10° NNW 17:16:39 40° N 17:16:39 40° N
Cosmos 2297 Rocket 3.8 17:28:55 27° ENE 17:28:55 27° ENE 17:31:46 10° NE
Cosmos 2333 Rocket 3.7 17:32:25 10° NNW 17:35:24 31° NW 17:35:24 31° NW
Cosmos 2237 Rocket 3.4 17:37:45 10° N 17:42:13 38° NE 17:42:13 38° NE
SJ 16-02 4.2 17:50:02 12° ENE 17:50:02 12° ENE 17:50:40 10° NE
Lacrosse 4 Rocket 4.4 17:56:32 11° NNW 17:56:32 11° NNW 17:57:03 10° NNW
Resurs 1-4 Rocket 3.3 18:01:34 10° NNE 18:05:08 36° ENE 18:05:08 36° ENE
Cosmos 2227 Rocket 2.8 18:17:15 53° NNE 18:17:15 53° NNE 18:21:31 10° NNE
SL-16 R/B 2.6 18:30:57 73° ENE 18:30:59 73° ENE 18:37:14 10° N
Cosmos 2219 Rocket 4.5 18:32:32 10° NW 18:33:16 13° WNW 18:33:16 13° WNW
Cosmos 2082 4.0 18:38:29 61° NE 18:38:29 61° NE 18:43:12 10° NNE
IRS-1D 4.4 18:38:51 10° NNE 18:43:13 43° E 18:43:13 43° E
CZ-4B R/B 4.3 18:39:31 10° NNE 18:43:08 42° ENE 18:43:08 42° ENE
ADEOS II 2.8 18:45:47 10° NNE 18:50:44 44° E 18:50:44 44° E
CZ-2D R/B 2.4 18:46:14 10° N 18:50:57 62° NNW 18:50:57 62° NNW
SL-16 R/B 2.7 18:47:29 10° NNW 18:53:05 55° ENE 18:54:23 45° ESE
NPP 3.8 18:49:29 10° N 18:54:12 67° NNW 18:54:12 67° NNW
Cosmos 1655 Rocket 4.4 18:49:20 10° N 18:55:32 59° E 18:56:57 48° SE
Cosmos 923 Rocket 4.2 18:52:13 10° NNW 18:57:21 67° NE 18:57:21 67° NE
USA 215 3.1 18:52:55 10° NE 18:59:29 82° SE 19:00:08 73° SSW
Meteor 1-24 Rocket 3.8 18:54:37 10° N 19:00:01 65° E 19:00:10 65° E
Cosmos 2263 Rocket 3.5 19:05:04 26° ESE 19:06:11 29° ESE 19:10:53 10° NE
Cosmos 2098 Rocket 4.4 19:01:50 10° N 19:06:55 51° E 19:09:11 34° SE
Cosmos 2344 4.5 18:57:56 10° NW 19:08:12 75° WSW 19:22:33 10° SSE
Okean 1-7 Rocket 4.4 19:05:46 10° N 19:09:55 48° ENE 19:09:55 48° ENE
Cosmos 2297 Rocket 3.4 19:10:43 29° WNW 19:10:43 29° WNW 19:15:33 10° N
Meteor 2-5 Rocket 3.7 19:05:10 10° NNW 19:10:19 70° NW 19:10:19 70° NW
COBE Rocket 4.0 19:14:50 68° N 19:14:50 68° N 19:18:56 10° N
SL-24 R/B 4.5 19:15:42 69° NNW 19:15:42 69° NNW 19:20:05 10° N
Cosmos 1340 Rocket 3.7 19:20:13 47° NE 19:20:13 47° NE 19:23:21 10° NNE
NOSS 2-3 (E) 4.3 19:21:26 46° E 19:21:26 46° E 19:25:25 10° NE
Meteor 1-22 Rocket 4.2 19:22:33 60° WNW 19:22:33 60° WNW 19:27:30 10° N
SJ 16-02 2.5 19:27:01 33° NW 19:27:01 33° NW 19:30:10 10° N
SL-4 R/B 3.8 19:28:43 20° E 19:28:43 20° E 19:30:00 10° ESE
Cosmos 2237 Rocket 4.0 19:22:19 10° NW 19:23:59 17° WNW 19:23:59 17° WNW
NOSS 3-1 (C) 3.0 19:27:32 70° WSW 19:28:04 77° NW 19:34:11 10° NNE
Cosmos 1953 3.8 19:27:48 30° ESE 19:28:22 31° E 19:31:57 10° NNE
ATLAS 3B CENTAUR R/B 3.8 19:26:51 39° SW 19:30:06 47° S 19:36:57 10° ESE
Cosmos 1461 3.8 19:32:57 41° NW 19:32:57 41° NW 19:36:49 10° NNE
ATLAS CENTAUR R/B 4.1 19:31:39 10° SE 19:32:57 11° ESE 19:34:14 10° E
SL-23 DEB 4.3 19:31:28 10° NW 19:38:05 85° NE 19:41:56 10° SE
Cosmos 1626 4.2 19:34:51 10° NNW 19:36:11 20° NNW 19:36:11 20° NNW
Cosmos 1455 Rocket 3.4 19:39:49 52° NW 19:39:49 52° NW 19:43:39 10° N
Timation 1 Rocket 4.2 19:38:13 57° SSW 19:39:31 87° WNW 19:45:31 10° NNE
Cosmos 1626 Rocket 4.3 19:39:55 10° N 19:44:08 49° E 19:46:00 29° SE
NOSS 2-3 (D) 3.4 19:44:37 76° SSE 19:44:47 78° ESE 19:49:27 10° NE
Meteor 1-28 Rocket 3.5 19:45:19 60° ESE 19:45:39 63° ENE 19:49:24 10° N
Resurs 1-4 Rocket 3.6 19:42:09 10° NNW 19:46:06 22° WNW 19:46:12 22° WNW
CZ-2D R/B 4.0 19:42:53 10° NNE 19:46:47 48° E 19:47:30 42° SE
IRS-P3 4.1 19:42:05 10° N 19:47:25 72° WNW 19:48:31 55° SW
Cosmos 2112 Rocket 3.9 19:46:29 10° NNW 19:51:37 59° WSW 19:52:09 56° SW
Cosmos 1937 Rocket 3.6 19:51:32 52° WSW 19:52:25 59° WNW 19:57:41 10° N
Cosmos 1943 4.4 19:52:52 10° N 19:58:12 42° ENE 20:03:29 10° SE
Cosmos 1898 Rocket 4.2 19:58:56 35° W 19:59:39 36° WNW 20:04:28 10° N
SL-08 R/B 3.3 19:58:23 38° S 20:00:19 78° WSW 20:05:17 10° NNW
Cosmos 1470 3.8 20:01:02 33° WNW 20:01:02 33° WNW 20:04:04 10° N
Cosmos 2227 Rocket 4.2 19:59:04 13° WNW 20:00:37 14° NW 20:03:39 10° NNW
USA 229 DEB 3.9 19:59:47 36° WSW 20:02:14 56° NW 20:08:56 10° NNE
USA 229 3.9 19:59:52 36° WSW 20:02:19 56° NW 20:08:59 10° NNE
ARIANE 5 R/B 2.5 19:59:20 10° N 20:04:32 71° WNW 20:06:20 41° SW
Cosmos 1607 4.2 20:00:46 10° NW 20:06:52 45° WSW 20:10:12 25° S
Cosmos 1680 Rocket 4.2 20:04:02 10° NW 20:08:22 34° W 20:08:22 34° W
Cosmos 372 Rocket 3.9 20:07:40 37° SSW 20:09:46 90° N 20:15:02 10° NNE
BREEZE-M TANK 3.6 20:07:20 13° WNW 20:10:28 65° NNE 20:20:52 10° ESE
BREEZE-M DEB (TANK) 3.6 20:10:24 34° SSE 20:11:08 39° SE 20:17:35 10° ENE
CZ-2C R/B 4.3 20:08:10 10° NE 20:11:53 24° E 20:15:38 10° SSE
NOSS 2-3 (C) 3.9 20:12:03 42° W 20:13:03 52° NW 20:17:44 10° NNE
NOSS 3-1 (A) 3.4 20:11:22 36° WSW 20:13:26 59° NW 20:19:32 10° NNE
Cosmos 2227 4.3 20:11:56 36° SW 20:14:15 66° WNW 20:20:01 10° NNE
SL-16 R/B 4.2 20:16:03 16° W 20:16:03 16° W 20:18:50 10° NW
H-2A R/B 2.9 20:11:52 10° SSE 20:15:50 48° ENE 20:19:48 10° N
Cosmos 1553 Rocket 4.3 20:12:49 11° S 20:18:33 64° E 20:24:34 10° NNE
Meteor 1-21 Rocket 4.1 20:13:07 10° N 20:18:41 87° W 20:24:13 10° S
IDEFIX/ARIANE 42P 2.5 20:13:52 10° N 20:19:05 80° WNW 20:21:58 27° SSW
MSX 3.8 20:23:02 10° NNE 20:28:50 85° ESE 20:33:40 15° SSW
Meteor 1-16 Rocket 4.0 20:26:20 22° SSW 20:29:53 79° W 20:35:23 10° N
Meteor 2-21 Rocket 4.3 20:23:53 10° N 20:29:57 79° W 20:36:01 10° S
ADEOS II 3.5 20:26:12 10° NNW 20:30:09 22° WNW 20:31:40 20° W
Delta 2 Rocket 3.8 20:29:52 32° S 20:30:35 35° SSE 20:34:13 10° E
Cosmos 1125 Rocket 4.0 20:26:36 14° S 20:30:57 58° ESE 20:36:07 10° NNE
Meteor 2-16 Rocket 4.4 20:25:50 10° N 20:32:01 89° E 20:38:11 10° S
CZ-4C R/B 2.9 20:30:02 13° SSE 20:32:50 75° ENE 20:36:07 10° N
ERS-2 2.7 20:29:44 10° SSE 20:33:17 58° ENE 20:36:53 10° N
Cosmos 1244 Rocket 4.5 20:29:55 10° N 20:36:16 76° W 20:42:32 10° S
Cosmos 1726 3.2 20:36:02 26° W 20:36:21 27° WNW 20:39:31 10° NNW
SL-16 R/B 3.6 20:32:51 10° WNW 20:36:08 19° W 20:36:08 19° W
USA 215 4.4 20:36:21 10° NNE 20:42:03 33° NNW 20:47:28 11° W
NOSS 8 (E) 4.5 20:42:23 24° SSW 20:44:18 68° ESE 20:47:20 10° NE
S3M 4.2 20:40:09 10° S 20:46:30 78° E 20:52:54 10° N
Aureole 3 4.3 20:42:44 10° S 20:47:41 81° E 20:54:02 10° N
CZ-2C R/B 3.1 20:44:37 10° N 20:48:18 45° WNW 20:50:20 23° SW
Cosmos 1606 Rocket 3.6 20:44:08 10° S 20:48:31 87° E 20:53:01 10° N
Cosmos 1602 Rocket 4.1 20:45:40 10° NNW 20:49:39 36° W 20:52:23 18° SSW
Cosmos 724 4.4 20:43:46 10° NW 20:49:41 58° WSW 20:55:40 10° SSE
Cosmos 2263 Rocket 2.9 20:46:46 20° WSW 20:49:55 36° WNW 20:55:03 10° N
SL-08 R/B 4.4 20:45:44 10° N 20:51:56 81° W 20:58:12 10° S
Cosmos 2084 3.5 20:49:06 20° SSW 20:52:07 90° SE 20:56:35 10° NE
Cosmos 2298 Rocket 4.4 20:50:40 19° SW 20:54:16 49° WNW 20:59:27 10° N
Cosmos 1908 3.6 20:52:36 20° SW 20:54:58 44° W 20:58:44 10° N
Atlas Centaur 2 3.9 20:52:07 15° SW 20:57:26 34° SSE 21:04:44 10° E
SeaSat 1 2.5 20:53:05 10° NNE 20:58:01 69° WNW 21:02:18 14° SW
OAO 3 Rocket 3.5 21:00:24 16° WSW 21:04:11 57° S 21:09:01 10° E
Cosmos 1953 4.1 21:03:30 14° W 21:04:49 16° WNW 21:07:25 10° NNW
NOSS 2-2 (E) 4.3 21:02:22 10° S 21:05:42 37° ESE 21:09:07 10° NE
Cosmos 1726 Rocket 3.5 21:01:22 10° S 21:05:48 76° W 21:10:16 10° N
PAYLOAD A 4.1 21:00:28 10° N 21:05:49 77° WNW 21:10:57 10° SSW
SL-4 R/B 2.8 21:04:34 15° W 21:06:10 21° SW 21:08:48 10° S
SAR-Lupe-4 4.4 21:05:02 10° SSE 21:08:31 54° ENE 21:12:02 10° N
Cosmos 1356 Rocket 3.4 21:06:20 10° SSW 21:10:33 76° W 21:14:43 10° N
ATLAS CENTAUR R/B 1.5 21:07:51 14° SW 21:11:24 61° WNW 21:15:22 10° NNE
USA 267 3.2 21:05:33 10° SE 21:12:04 79° SW 21:18:39 10° NW
Landsat 5 3.9 21:09:12 10° SSW 21:12:46 35° W 21:16:26 10° NNW
Cosmos 1844 Rocket 2.9 21:10:03 10° SSW 21:15:36 75° ESE 21:21:11 10° NNE
Cosmos 1603 4.3 21:11:40 10° NW 21:16:47 34° WSW 21:21:51 10° SSW
PSLV R/B 3.8 21:13:19 10° N 21:17:35 52° WNW 21:21:47 10° SSW
Cosmos 1048 Rocket 4.0 21:13:57 10° NNW 21:19:03 62° WSW 21:24:08 10° S
Cosmos 2315 Rocket 4.3 21:16:19 10° S 21:22:35 74° E 21:28:55 10° N
SAR-Lupe-1 4.2 21:20:14 10° SSE 21:23:48 83° ENE 21:27:24 10° N
deb Chang Zheng 4 3.6 21:21:49 10° N 21:26:08 68° WNW 21:30:27 10° SSW
BREEZE-M R/B 4.2 21:28:25 10° NW 21:31:02 64° NE 21:40:27 10° ESE
Cosmos 1300 2.9 21:27:59 10° SSW 21:31:42 51° W 21:35:26 10° N
FALCON 9 DEB 4.2 21:29:03 10° WNW 21:31:55 24° SW 21:34:45 10° S
Cosmos 2228 4.1 21:28:53 10° SW 21:32:38 28° WNW 21:36:27 10° NNW
Cosmos 2058 Rocket 3.2 21:31:12 10° SSW 21:35:36 57° W 21:40:01 10° N
Cosmos 1943 4.2 21:37:29 10° NW 21:41:56 25° WSW 21:46:24 10° SSW
